Flag Weather past 2 weeks in Kunming, Yunnan, China

Now
64 °F

Sunny.


Feels Like: 64 °F
Forecast: 44 / 63 °F
Wind: 20 mph from Southwest

Location: Kunming Airport

Current Time: Nov 23, 2014 at 5:03:48 PM

Latest Report: Nov 23, 2014 at 4:00 PM


Visibility: 10 mi

Pressure: 30.07 "Hg

Humidity: 37%

Dew point: 37 °F

Location of KunmingLocation

Historic Weather in Kunming — Graph

°F

Kunming temperature yesterday

Maximum temperature yesterday: 63 °F (at 3:00 PM)
Minimum temperature yesterday: 50 °F (at 12:00 AM)
Average temperature yesterday: 54 °F

Past Weeks' High & Low Weather Summary

 TemperatureHumidityPressure
High66 °F (Nov 8, 4:00 PM)100% (Nov 8, 11:00 PM)30.42 "Hg (Nov 8, 11:00 PM)
Low43 °F (Nov 13, 6:00 AM)34% (Nov 21, 3:00 PM)30.04 "Hg (Nov 20, 5:00 PM)
Average52 °F84%30.21 "Hg
* Reported Nov 8 4:00 PM — Nov 23 4:00 PM, Kunming, Weather by CustomWeather, © 2014

Note: Actual official high and low records may vary slightly from our data, if they occured in-between our weather recording intervals... More about our weather records

Advertising

Kunming weather history for previous 24 hours

 ConditionsComfort  
Time TempWeatherWind HumidityBarometerVisibility
4:00 PM
Nov 23
64 °FSunny.20 mph37%30.07 "Hg10 mi
3:00 PM64 °FPassing clouds.17 mph37%30.07 "HgN/A
2:00 PM63 °FSunny.20 mph39%30.09 "Hg10 mi
1:00 PM63 °FSunny.24 mph39%30.15 "Hg10 mi
12:00 PM59 °FPassing clouds.24 mph48%30.18 "HgN/A
11:00 AM55 °FScattered clouds.22 mph59%30.21 "HgN/A
10:00 AM52 °FScattered clouds.17 mph82%30.18 "HgN/A
9:00 AM50 °FPassing clouds.15 mph94%30.18 "Hg4 mi
8:00 AM46 °FScattered clouds.10 mph100%30.15 "Hg4 mi
7:00 AM46 °FPassing clouds.6 mph100%30.12 "HgN/A
6:00 AM48 °FPassing clouds.10 mph100%30.12 "Hg4 mi
5:00 AM45 °FPassing clouds.8 mph100%30.12 "HgN/A
4:00 AM46 °FClear.8 mph93%30.12 "Hg10 mi
3:00 AM46 °FClear.8 mph93%30.12 "Hg10 mi
2:00 AM48 °FClear.8 mph87%30.15 "Hg10 mi
1:00 AM48 °FClear.6 mph87%30.15 "Hg10 mi
12:00 AM50 °FClear.8 mph82%30.15 "Hg10 mi
11:00 PM
Nov 22
52 °FClear.10 mph77%30.15 "Hg10 mi
10:00 PM54 °FPassing clouds.8 mph67%30.12 "HgN/A
9:00 PM50 °FPassing clouds.8 mph71%30.12 "HgN/A
8:00 PM52 °FClear.8 mph62%30.09 "Hg10 mi
7:00 PM55 °FPassing clouds.13 mph55%30.07 "HgN/A
6:00 PM57 °FScattered clouds.13 mph51%30.07 "HgN/A
5:00 PM59 °FScattered clouds.15 mph45%30.04 "HgN/A
Weather by CustomWeather, © 2014

See weather overviewHow to use our weather pages